Content
SEND FEEDBACK

Daily
Averages
Monthly
Summary
Mexico

PLAYA DEL CARMEN, QUINTANA ROO


Home > North America > Mexico > Quintana Roo
Elevation: 30 feet     Latitude: 20 38N     Longitude: 087 04W

WEATHER
 
SELECT A DAY
Number of Records: 196,286;   Date Range: 2/21/06 - 7/23/14
 
SHARE

PRINT THIS DATA

[ ← Previous Day ]
WEATHER ALMANAC - JULY 2, 2014
[ Next Day → ]
[ °C ]   °F
Weather ElementAverageHighLow
Temperature84.1 °F95 °F (1:55 pm)75.2 °F (5:15 am)
Dewpoint55.2 °F77 °F (1:55 am) (7:00 pm)
Humidity64.4 %100 % (1:55 am)39 % (1:55 pm)
Barometer29.95 in29.99 in (11:35 pm)29.91 in (4:35 am)
Wind Speed5 mph15 mph (6:35 pm)
Wind Gust19.6 mph (6:35 pm)
Weather ElementAverage
Visibility10 mi
Wind DirectionSSE (152.1 °)

Weather ElementTotal
Precipitation---
Cooling Degree Days20.1 (Base 65)
Growing Degree Days35.1 (Base 50)
Averaged from 70 records on July 2, 2014
WEATHER CONDITIONS BREAKOUT
WIND DIRECTION BREAKOUT
WEATHER BY HOUR - JULY 2, 2014
[ °C ]   °F
Local TimeTemperatureDewpointHumidityBarometerVisibilityWind DirectionWind SpeedGust SpeedPrecipitationEventsConditions
12:35 AM80.6 °F73.4 °F79 %29.95 in10.0 miCalmClear
12:55 AM78.8 °F73.4 °F83 %29.94 in10.0 miCalmClear
1:15 AM78.8 °F73.4 °F83 %29.94 in10.0 miCalmClear
1:35 AM78.8 °F75.2 °F89 %29.94 in10.0 miCalmClear
1:55 AM77.0 °F77.0 °F100 %29.93 in10.0 miCalmClear
2:15 AM78.8 °F77.0 °F94 %29.94 in10.0 miNNW (330°)3.5 mphClear
2:35 AM78.8 °F77.0 °F94 %29.94 in10.0 miCalmClear
2:55 AM78.8 °F77.0 °F94 %29.94 in10.0 miCalmClear
3:15 AM77.0 °F77.0 °F100 %29.93 in10.0 miCalmClear
3:35 AM77.0 °F0.0 °F29.93 in10.0 miNorth (360°)3.5 mphClear
3:55 AM77.0 °F0.0 °F29.92 in10.0 miCalmClear
4:15 AM77.0 °F0.0 °F29.92 in10.0 miCalmClear
4:35 AM77.0 °F0.0 °F29.91 in10.0 miCalmClear
4:55 AM77.0 °F0.0 °F29.91 in10.0 miCalmClear
5:15 AM75.2 °F0.0 °F29.91 in10.0 miWest (280°)3.5 mphClear
5:35 AM75.2 °F0.0 °F29.92 in10.0 miNW (310°)3.5 mphClear
5:55 AM75.2 °F0.0 °F29.92 in10.0 miCalmClear
6:15 AM75.2 °F0.0 °F29.93 in10.0 miCalmClear
6:35 AM75.2 °F0.0 °F29.94 in10.0 miNorthClear
6:55 AM75.2 °F0.0 °F29.94 in10.0 miNorthClear
7:15 AM75.2 °F0.0 °F29.94 in10.0 miNorthClear
7:35 AM77.0 °F0.0 °F29.95 in10.0 miNorthClear
7:55 AM78.8 °F0.0 °F29.95 in10.0 miNorthClear
8:15 AM80.6 °F0.0 °F29.96 in10.0 miNorthClear
8:35 AM82.4 °F0.0 °F29.96 in10.0 miNorthClear
8:55 AM82.4 °F75.2 °F79 %29.97 in10.0 miNorthClear
9:15 AM84.2 °F71.6 °F66 %29.96 in10.0 miNorthClear
9:35 AM86.0 °F71.6 °F62 %29.96 in10.0 miNorthClear
9:55 AM86.0 °F71.6 °F62 %29.97 in10.0 miNorthClear
10:15 AM87.8 °F71.6 °F58 %29.96 in10.0 miNorthClear
10:35 AM87.8 °F71.6 °F58 %29.97 in10.0 miNW (310°)6.9 mphClear
10:55 AM87.8 °F69.8 °F55 %29.97 in10.0 miNNW (330°)5.8 mphClear
11:15 AM89.6 °F69.8 °F52 %29.97 in10.0 miWNW (290°)8.1 mphScattered Clouds
11:35 AM89.6 °F69.8 °F52 %29.97 in10.0 miNNW (340°)8.1 mphScattered Clouds
11:55 AM91.4 °F68.0 °F46 %29.97 in10.0 miNorth (350°)9.2 mphClear
12:15 PM91.4 °F68.0 °F46 %29.97 in10.0 miNorth (350°)6.9 mphClear
12:35 PM91.4 °F68.0 °F46 %29.96 in10.0 miNNW (330°)4.6 mphScattered Clouds
12:55 PM93.2 °F68.0 °F44 %29.96 in10.0 miNW (310°)9.2 mphScattered Clouds
1:15 PM93.2 °F66.2 °F41 %29.96 in10.0 miNW (320°)6.9 mphScattered Clouds
1:35 PM93.2 °F66.2 °F41 %29.95 in10.0 miNW (310°)5.8 mphScattered Clouds
1:55 PM95.0 °F66.2 °F39 %29.94 in10.0 miNW (310°)10.4 mphScattered Clouds
2:15 PM95.0 °F66.2 °F39 %29.94 in10.0 miWNW (290°)9.2 mphScattered Clouds
2:35 PM95.0 °F68.0 °F41 %29.93 in10.0 miNNW (330°)9.2 mphMostly Cloudy
2:55 PM95.0 °F66.2 °F39 %29.93 in10.0 miWNW (290°)5.8 mphScattered Clouds
3:15 PM95.0 °F69.8 °F44 %29.93 in10.0 miWNW (300°)8.1 mphScattered Clouds
3:35 PM95.0 °F71.6 °F47 %29.93 in10.0 miWSW (250°)11.5 mph17.3 mphScattered Clouds
3:55 PM95.0 °F71.6 °F47 %29.93 in10.0 miWest (260°)10.4 mphScattered Clouds
4:15 PM95.0 °F71.6 °F47 %29.92 in10.0 miWSW (240°)9.2 mphScattered Clouds
4:35 PM95.0 °F71.6 °F47 %29.93 in10.0 miWSW (240°)11.5 mphScattered Clouds
5:15 PM93.2 °F71.6 °F49 %29.91 in10.0 miWSW (240°)11.5 mphClear
5:35 PM95.0 °F71.6 °F47 %29.91 in10.0 miSW (230°)11.5 mph18.4 mphClear
5:55 PM93.2 °F69.8 °F46 %29.91 in10.0 miSW (230°)12.7 mphScattered Clouds
6:15 PM93.2 °F66.2 °F41 %29.92 in10.0 miWSW (250°)13.8 mphClear
6:35 PM93.2 °F66.2 °F41 %29.93 in10.0 miWest (260°)15.0 mph19.6 mphScattered Clouds
6:55 PM86.0 °F75.2 °F70 %29.95 in10.0 miNorth (360°)8.1 mphMostly Cloudy
7:15 PM82.4 °F73.4 °F74 %29.95 in10.0 miNorth (360°)6.9 mph17.3 mphMostly Cloudy
7:35 PM80.6 °F73.4 °F79 %29.95 in10.0 miNorth (10°)8.1 mphScattered Clouds
7:55 PM80.6 °F73.4 °F79 %29.96 in10.0 miNNE (20°)4.6 mphClear
8:15 PM80.6 °F73.4 °F79 %29.96 in10.0 miNorth (360°)3.5 mphClear
8:35 PM80.6 °F73.4 °F79 %29.97 in10.0 miCalmClear
8:55 PM80.6 °F73.4 °F79 %29.96 in10.0 miNW (310°)3.5 mphClear
9:15 PM78.8 °F73.4 °F83 %29.96 in10.0 miCalmClear
9:35 PM80.6 °F71.6 °F74 %29.97 in10.0 miCalmClear
9:55 PM78.8 °F73.4 °F83 %29.97 in10.0 miCalmClear
10:15 PM80.6 °F71.6 °F74 %29.98 in10.0 miCalmMostly Cloudy
10:35 PM80.6 °F71.6 °F74 %29.97 in10.0 miSSW (210°)4.6 mphScattered Clouds
10:55 PM80.6 °F71.6 °F74 %29.97 in10.0 miSW (230°)5.8 mphClear
11:15 PM80.6 °F73.4 °F79 %29.98 in10.0 miSSW (210°)4.6 mphClear
11:35 PM80.6 °F73.4 °F79 %29.99 in10.0 miCalmClear
11:55 PM80.6 °F73.4 °F79 %29.99 in10.0 miNNW (340°)4.6 mphClear
Hourly data recorded from KPCM, located miles away from Playa del Carmen, Quintana Roo







STORIES FROM OUR PARTNERS